Location: Camp Creek
(33.9000°N, 111.8167°W)
Time: 17:50:27
(UTC-07:00)

DELTA 2 R/B (1) - Visible Passes

Search period start: 26 July 2017 00:00
Search period end: 05 August 2017 00:00
Orbit: 791 x 802 km, 39.6° (Epoch: 26 July)

Date Brightness Start Highest point End Pass type
(mag) Time Alt. Az. Time Alt. Az. Time Alt. Az.
26 Jul 5.6 01:31:08 21° ENE 01:31:08 21° ENE 01:32:54 10° ENE visible
26 Jul 4.2 03:11:53 34° WNW 03:13:59 52° N 03:19:26 10° ENE visible
26 Jul 4.4 04:55:36 10° WNW 05:01:01 51° N 05:06:25 10° E visible
27 Jul 6.1 01:01:43 12° ENE 01:01:43 12° ENE 01:02:03 10° ENE visible
27 Jul 4.1 02:42:28 50° NW 02:43:07 53° NNW 02:48:35 10° ENE visible
27 Jul 4.4 04:24:44 10° WNW 04:30:08 49° N 04:35:32 10° E visible
28 Jul 4.3 02:13:05 50° NNE 02:13:05 50° NNE 02:17:44 10° ENE visible
28 Jul 4.4 03:53:52 10° WNW 03:59:16 49° N 04:04:39 10° E visible
29 Jul 5.0 01:43:45 33° NE 01:43:45 33° NE 01:46:53 10° ENE visible
29 Jul 4.4 03:24:31 18° WNW 03:28:24 48° N 03:33:46 10° E visible
30 Jul 5.7 01:14:31 19° ENE 01:14:31 19° ENE 01:16:03 10° ENE visible
30 Jul 4.4 02:55:17 31° NW 02:57:31 47° N 03:02:54 10° ENE visible
30 Jul 3.7 04:38:46 10° WNW 04:44:22 81° NNE 04:49:56 10° ESE visible
31 Jul 4.4 02:26:12 46° NNW 02:26:38 47° N 02:32:01 10° ENE visible
31 Jul 3.7 04:07:55 10° WNW 04:13:32 77° NNE 04:19:05 10° ESE visible
01 Aug 4.9 01:57:21 37° NE 01:57:21 37° NE 02:01:08 10° ENE visible
01 Aug 3.7 03:38:09 16° WNW 03:42:40 73° NNE 03:48:14 10° ESE visible
01 Aug 5.7 21:46:21 10° SW 21:46:59 13° SW 21:46:59 13° SW visible
02 Aug 5.8 01:28:47 18° ENE 01:28:47 18° ENE 01:30:16 10° ENE visible
02 Aug 3.8 03:09:37 37° NW 03:11:49 69° NNE 03:17:22 10° ESE visible
02 Aug 4.0 04:52:55 10° WNW 04:58:08 41° SSW 05:03:18 10° SE visible
02 Aug 4.2 21:15:38 10° SSW 21:19:52 36° S 21:19:52 36° S visible
03 Aug 3.9 02:41:31 62° NE 02:41:31 62° NE 02:46:31 10° E visible
03 Aug 3.9 04:22:23 12° WNW 04:27:19 44° SSW 04:32:35 10° SE visible
03 Aug 4.1 20:44:57 10° SSW 20:49:59 35° SE 20:52:26 24° E visible
03 Aug 5.0 22:30:37 10° WSW 22:33:19 29° W 22:33:19 29° W visible
04 Aug 5.5 02:13:53 21° E 02:13:53 21° E 02:15:39 10° E visible
04 Aug 3.7 03:54:47 36° WSW 03:56:31 48° SSW 04:01:50 10° SE visible
04 Aug 4.3 20:14:15 10° SSW 20:19:12 32° SE 20:24:09 10° E visible
04 Aug 3.5 21:59:45 10° WSW 22:05:23 80° NNW 22:05:25 80° NNW visible
